GW0275 Weather Reports


time (UTC)temp
F
wind
direction
speed
knots
gust
knots
rain 1hr
in
rain 24hr
in
rain mn
in
humidity
%
barometer
mb
20260505070036 46 207 5.2 11.3 0.00 0.08 0.00 81 1008.5
20260505064541 47 247 7.0 13.9 0.00 0.10 0.00 81 1008.1
20260505063037 47 259 6.1 14.8 0.00 0.10 0.00 80 1007.8
20260505061546 47 243 7.0 15.6 0.00 0.10 0.00 80 1007.6
20260505060034 47 267 6.1 14.8 0.00 0.10 0.00 80 1007.4
20260505054558 48 281 5.2 15.6 0.00 0.11 0.00 79 1006.9
20260505053036 48 287 7.0 12.2 0.00 0.11 0.00 79 1006.7
20260505051535 48 233 7.0 12.2 0.00 0.11 0.00 79 1006.5
20260505041535 49 227 5.2 13.9 0.00 0.13 0.00 77 1005.5
20260505040035 49 240 7.0 14.8 0.00 0.13 0.00 76 1005.5
20260505034533 49 246 7.0 14.8 0.00 0.13 0.00 76 1005.3
20260505033037 50 207 8.7 16.5 0.00 0.13 0.00 74 1005.0
20260505031546 50 246 7.8 13.0 0.00 0.13 0.00 74 1004.8
20260505030035 51 249 8.7 15.6 0.00 0.13 0.00 73 1004.7
20260505024538 51 217 7.0 16.5 0.00 0.13 0.13 73 1004.6
20260505023035 51 259 8.7 20.9 0.00 0.13 0.13 72 1004.3
20260505021538 50 252 7.8 15.6 0.00 0.13 0.13 73 1004.1
20260505020035 50 211 5.2 12.2 0.00 0.13 0.13 74 1003.9
20260505014538 50 234 6.1 13.9 0.00 0.15 0.13 72 1003.7
20260505013036 50 251 5.2 12.2 0.00 0.15 0.13 72 1003.8
20260505011536 51 226 7.0 14.8 0.00 0.15 0.13 72 1003.7
20260505010035 51 240 7.8 18.2 0.00 0.15 0.13 71 1003.6
20260505004545 50 244 5.2 13.9 0.00 0.21 0.13 70 1003.6
20260505003034 51 221 7.0 14.8 0.00 0.21 0.13 68 1003.5
20260505001537 51 258 6.1 16.5 0.00 0.21 0.13 64 1003.4
20260505000051 52 225 9.6 20.9 0.00 0.21 0.13 59 1003.5
20260504234535 51 247 7.0 15.6 0.00 0.40 0.13 61 1002.8
20260504233040 50 219 4.3 9.6 0.00 0.40 0.13 66 1002.6
20260504231532 50 240 3.5 7.8 0.00 0.40 0.13 65 1002.4
20260504230046 51 215 3.5 12.2 0.00 0.40 0.13 64 1002.2
20260504224533 52 213 5.2 13.0 0.00 0.55 0.13 61 1002.2
20260504223032 53 239 6.1 13.9 0.00 0.55 0.13 59 1002.3
20260504221544 53 219 7.8 18.2 0.00 0.55 0.13 58 1001.8
20260504220035 53 230 7.0 23.5 0.00 0.55 0.13 60 1002.0
20260504214538 53 238 8.7 18.2 0.00 0.71 0.13 57 1001.7
20260504213042 53 262 7.8 20.9 0.00 0.71 0.13 58 1001.7
20260504211535 53 220 7.8 18.2 0.00 0.71 0.13 57 1001.4
20260504210032 53 238 10.4 20.9 0.00 0.71 0.13 58 1001.4
20260504204541 54 268 7.0 24.3 0.00 0.76 0.13 56 1001.2
20260504203038 53 259 10.4 20.9 0.00 0.76 0.13 56 1001.0
20260504201537 53 229 9.6 29.5 0.00 0.76 0.13 62 1000.7
20260504200036 53 269 11.3 23.5 0.00 0.76 0.13 64 1000.4
20260504194537 52 209 8.7 26.1 0.00 0.77 0.13 68 999.9
20260504193035 53 194 13.0 31.3 0.00 0.77 0.13 68 999.5
20260504191534 52 271 13.9 25.2 0.00 0.77 0.13 71 999.1
20260504190034 52 229 9.6 22.6 0.00 0.77 0.13 74 998.9
20260504184535 50 269 9.6 24.3 0.00 0.80 0.13 77 999.0
20260504183036 49 247 10.4 23.5 0.00 0.80 0.13 78 998.8
20260504181533 48 245 10.4 21.7 0.00 0.80 0.13 81 998.4
20260504180038 46 244 10.4 20.9 0.00 0.80 0.13 82 998.3
20260504174538 46 269 11.3 22.6 0.00 0.80 0.13 83 998.1
20260504173037 46 228 8.7 18.2 0.00 0.80 0.13 84 998.1
20260504171536 45 231 9.6 20.9 0.00 0.80 0.13 85 997.7
20260504081537 39 225 7.8 20.9 0.01 0.74 0.07 93 977.9